Temp
67 66 65 64 64 63 61 61 62 61 60 60 60 59 58 58 58 57 56 55 55 55
63 63 62 63 62 61 61 62 60 59 59 59 59 58 57 56 55 56 54 54 54 54
61 61 60 60 58 58 59 59 59 59 59 58 57 56 55 55 54 54 54 54 53 53
60 60 59 59 59 59 59 60 60 60 59 58 56 55 54 53 54 53 53 53 53 52
60 59 58 56 56 57 57 58 59 59 58 57 56 55 54 54 53 53 53 52 53 52
57 57 55 55 56 56 56 56 57 58 58 57 56 55 54 54 53 52 52 52 53 52
56 55 55 55 55 55 56 56 56 57 56 56 56 56 55 53 52 52 52 52 53 54
55 54 54 54 55 55 56 55 56 55 55 55 56 57 53 53 51 51 51 52 53 55
55 56 54 55 55 55 53 52 53 53 54 54 57 52 53 52 51 51 51 51 52 53
56 55 54 54 54 52 50 52 50 51 52 52 53 50 50 52 52 51 51 50 52 54
55 55 55 54 52 51 51 52 51 50 50 51 52 50 49 50 52 52 51 51 51 51
56 55 55 52 52 53 52 51 50 51 51 51 51 48 49 52 53 54 53 53 53 53
57 57 54 53 52 52 51 51 53 52 52 52 52 47 48 51 55 53 54 53 55 50
57 56 55 53 53 52 52 51 52 53 54 53 53 51 47 48 54 53 53 53 54 55
MSLP
1015.54 1017.02 1017.46 1017.80 1018.06 1018.09 1018.46 1018.67 1018.38 1018.44 1018.48 1018.58 1018.87 1019.00 1018.89 1018.96 1019.14 1019.32 1019.37 1019.40 1019.46 1019.42
1017.05 1017.68 1017.95 1018.12 1018.47 1018.87 1019.07 1019.13 1019.09 1019.12 1019.31 1019.44 1019.72 1019.67 1019.62 1019.78 1020.00 1019.98 1020.11 1020.16 1020.10 1020.10
1018.36 1018.46 1018.42 1018.70 1019.28 1019.71 1019.78 1019.72 1019.64 1019.86 1019.90 1019.98 1020.38 1020.46 1020.49 1020.61 1020.73 1020.65 1020.88 1020.92 1020.80 1020.78
1018.81 1019.00 1019.06 1019.48 1019.96 1020.22 1020.20 1020.14 1020.16 1020.40 1020.71 1020.85 1021.11 1021.26 1021.35 1021.46 1021.47 1021.48 1021.60 1021.59 1021.49 1021.55
1019.52 1019.38 1019.57 1020.28 1020.57 1020.50 1020.58 1020.73 1020.73 1020.96 1021.18 1021.43 1021.78 1021.98 1022.10 1022.17 1022.22 1022.22 1022.37 1022.46 1022.08 1022.02
1019.58 1020.02 1020.60 1020.90 1021.03 1021.10 1021.30 1021.31 1021.34 1021.46 1021.67 1022.09 1022.39 1022.52 1022.80 1022.82 1022.94 1023.03 1023.00 1022.94 1022.81 1022.58
1020.27 1020.63 1020.97 1021.46 1021.54 1021.70 1021.73 1021.84 1021.98 1022.11 1022.26 1022.53 1022.83 1023.12 1023.24 1023.29 1023.44 1023.43 1023.38 1023.27 1023.10 1022.86
1020.62 1021.17 1021.62 1021.80 1021.93 1022.19 1022.32 1022.50 1022.56 1022.52 1022.87 1023.16 1023.32 1023.41 1023.56 1023.64 1023.80 1023.79 1023.81 1023.62 1023.40 1023.05
1021.17 1021.80 1022.11 1022.21 1022.47 1022.75 1022.96 1022.95 1023.03 1023.38 1023.57 1023.65 1023.72 1023.84 1023.85 1023.92 1024.04 1024.14 1024.12 1024.15 1023.90 1023.62
1021.52 1022.01 1022.34 1022.56 1022.80 1023.27 1023.45 1023.63 1023.91 1024.08 1024.12 1024.32 1024.39 1024.42 1024.33 1024.29 1024.29 1024.37 1024.51 1024.50 1024.29 1024.00
1021.81 1022.19 1022.58 1022.96 1023.38 1023.74 1024.05 1024.21 1024.34 1024.58 1024.67 1024.70 1024.76 1024.61 1024.84 1024.88 1024.89 1024.82 1024.71 1024.70 1024.62 1024.47
1021.84 1022.45 1022.89 1023.38 1023.82 1024.02 1024.13 1024.56 1024.80 1024.74 1024.76 1024.80 1024.81 1024.72 1024.90 1024.84 1024.89 1024.99 1025.10 1024.94 1024.66 1024.57
1022.10 1022.50 1023.08 1023.49 1023.81 1024.10 1024.38 1024.62 1024.66 1024.74 1024.76 1024.83 1024.91 1024.94 1024.87 1024.86 1024.94 1025.04 1025.04 1024.80 1024.38 1024.57
1022.22 1022.67 1022.98 1023.46 1023.82 1024.20 1024.50 1024.67 1024.75 1024.83 1024.92 1025.01 1025.01 1025.00 1024.98 1024.88 1024.88 1025.05 1025.08 1024.86 1024.51 1024.34
Wind_Speed
11 5 5 5 5 6 6 5 7 9 9 10 9 8 8 7 7 7 7 9 7 5
8 7 7 8 8 6 5 6 8 9 9 9 9 9 8 7 8 8 7 7 7 5
7 7 9 9 9 8 7 7 9 9 9 9 9 8 8 7 7 9 7 6 8 7
9 9 9 9 8 7 7 7 8 8 9 9 9 7 9 8 8 10 8 8 8 9
8 9 11 8 7 6 7 7 8 8 9 9 9 8 8 9 8 8 9 7 8 9
9 9 8 7 6 7 7 8 8 8 8 8 8 9 8 8 8 8 7 7 7 7
8 8 8 7 8 8 6 8 8 7 8 8 7 7 7 7 7 7 7 7 6 6
8 8 7 8 7 7 8 7 7 9 8 6 5 5 6 7 6 6 6 7 7 7
9 7 6 7 7 8 8 8 8 7 6 6 4 7 10 8 6 6 7 6 6 7
8 8 7 7 8 8 7 6 6 5 5 5 4 6 7 8 5 6 5 5 5 6
8 8 7 7 7 5 4 5 5 5 4 4 3 3 5 6 5 4 5 4 4 4
7 8 7 7 6 3 5 4 3 3 4 4 4 1 7 4 3 3 3 3 2 3
7 8 7 6 6 3 3 3 2 3 3 4 4 5 5 3 1 2 2 4 5 4
6 7 7 6 3 4 4 3 2 2 0 1 2 4 6 4 2 2 2 3 4 4
Wind_Direction
83 85 74 75 75 71 73 66 70 63 63 61 64 63 61 61 60 55 51 51 47 46
77 81 83 76 71 67 69 75 68 69 70 62 58 57 59 57 52 58 45 45 49 50
76 84 82 78 74 68 68 77 79 73 71 70 61 58 60 57 44 59 41 41 45 35
85 85 83 84 81 81 77 74 73 74 75 67 67 55 67 61 59 65 56 43 53 44
94 86 77 75 76 74 75 62 79 83 81 77 73 63 65 66 57 62 54 43 56 49
82 84 87 80 74 66 74 69 73 83 86 87 79 74 62 66 63 59 57 50 53 52
101 100 93 89 79 80 81 83 75 69 79 81 80 80 75 70 61 52 50 45 47 54
101 86 89 92 88 76 71 74 80 80 73 85 88 84 81 74 68 65 56 43 36 35
97 98 91 84 83 82 76 68 72 68 81 84 84 98 96 91 81 73 61 46 35 41
114 114 111 100 98 95 85 88 81 69 69 68 57 45 93 102 101 95 81 65 48 50
118 113 102 100 96 95 96 84 82 77 72 80 40 77 82 87 67 54 82 73 57 47
122 114 115 114 124 102 92 84 95 100 87 82 40 56 136 102 89 79 30 359 7 34
125 129 127 132 122 99 108 123 118 95 65 57 56 41 125 125 101 353 338 327 314 347
123 130 129 125 119 122 121 118 88 78 105 84 43 51 88 101 84 46 7 329 331 342